QPF
0.07 0.10 0.12 0.21 0.15 0.09 0.08 0.08 0.05 0.05 0.05 0.04 0.03 0.04 0.05 0.08 0.11 0.10 0.08 0.08 0.09 0.09 0.10 0.10 0.10 0.09 0.08 0.07 0.07 0.09 0.10 0.11 0.13 0.13 0.11 0.09 0.06 0.05 0.06 0.06 0.08 0.11 0.12
0.11 0.14 0.17 0.23 0.12 0.08 0.09 0.09 0.08 0.06 0.05 0.03 0.03 0.04 0.06 0.08 0.11 0.10 0.09 0.09 0.10 0.10 0.10 0.10 0.09 0.09 0.08 0.08 0.11 0.13 0.12 0.12 0.12 0.17 0.14 0.09 0.06 0.05 0.06 0.07 0.10 0.14 0.10
0.11 0.13 0.18 0.25 0.13 0.09 0.09 0.09 0.09 0.07 0.05 0.04 0.05 0.06 0.07 0.08 0.10 0.12 0.11 0.12 0.11 0.10 0.10 0.11 0.12 0.09 0.10 0.11 0.13 0.15 0.13 0.13 0.14 0.16 0.16 0.11 0.07 0.06 0.07 0.07 0.10 0.13 0.11
0.07 0.09 0.16 0.23 0.15 0.11 0.11 0.09 0.09 0.08 0.07 0.07 0.07 0.06 0.06 0.07 0.07 0.10 0.10 0.10 0.11 0.12 0.14 0.14 0.11 0.09 0.10 0.12 0.14 0.17 0.16 0.15 0.17 0.18 0.16 0.13 0.10 0.11 0.10 0.09 0.11 0.12 0.11
0.07 0.08 0.18 0.22 0.17 0.13 0.12 0.12 0.11 0.11 0.11 0.10 0.09 0.09 0.08 0.08 0.10 0.12 0.11 0.10 0.10 0.12 0.16 0.16 0.12 0.11 0.10 0.12 0.15 0.17 0.23 0.27 0.25 0.20 0.14 0.12 0.11 0.12 0.14 0.11 0.12 0.11 0.10
0.10 0.12 0.18 0.21 0.19 0.14 0.14 0.13 0.14 0.14 0.13 0.11 0.11 0.12 0.13 0.17 0.21 0.19 0.13 0.12 0.10 0.10 0.13 0.15 0.13 0.11 0.11 0.11 0.12 0.16 0.23 0.30 0.31 0.24 0.19 0.11 0.10 0.10 0.12 0.10 0.09 0.09 0.09
0.12 0.16 0.15 0.19 0.20 0.17 0.18 0.15 0.16 0.17 0.16 0.14 0.12 0.12 0.12 0.12 0.15 0.16 0.12 0.08 0.06 0.07 0.08 0.10 0.11 0.12 0.13 0.11 0.10 0.15 0.24 0.28 0.26 0.20 0.21 0.16 0.11 0.09 0.11 0.12 0.11 0.09 0.10
0.09 0.13 0.13 0.18 0.20 0.20 0.23 0.26 0.24 0.20 0.17 0.14 0.11 0.09 0.08 0.08 0.09 0.10 0.08 0.05 0.05 0.07 0.06 0.06 0.07 0.09 0.11 0.12 0.10 0.14 0.26 0.32 0.25 0.18 0.16 0.17 0.15 0.11 0.12 0.14 0.13 0.12 0.12
0.06 0.07 0.09 0.13 0.18 0.21 0.30 0.33 0.28 0.21 0.17 0.14 0.10 0.08 0.08 0.09 0.10 0.10 0.09 0.07 0.07 0.08 0.05 0.06 0.08 0.10 0.13 0.15 0.16 0.21 0.24 0.32 0.27 0.23 0.19 0.18 0.14 0.11 0.11 0.13 0.14 0.14 0.11
0.05 0.07 0.08 0.11 0.14 0.17 0.22 0.24 0.21 0.18 0.15 0.12 0.11 0.11 0.10 0.08 0.07 0.07 0.06 0.07 0.07 0.08 0.06 0.07 0.09 0.13 0.20 0.23 0.26 0.31 0.28 0.27 0.22 0.22 0.20 0.17 0.19 0.16 0.12 0.10 0.11 0.12 0.14
0.03 0.05 0.06 0.08 0.11 0.14 0.15 0.16 0.14 0.14 0.14 0.13 0.13 0.13 0.11 0.09 0.07 0.06 0.06 0.06 0.08 0.07 0.06 0.06 0.07 0.10 0.19 0.29 0.31 0.29 0.28 0.22 0.17 0.15 0.15 0.14 0.16 0.17 0.14 0.11 0.09 0.10 0.12
0.03 0.04 0.05 0.06 0.09 0.09 0.12 0.14 0.11 0.10 0.11 0.12 0.16 0.17 0.12 0.10 0.10 0.09 0.07 0.08 0.10 0.05 0.05 0.05 0.06 0.07 0.12 0.20 0.24 0.23 0.20 0.15 0.13 0.11 0.12 0.11 0.12 0.12 0.13 0.11 0.10 0.14 0.14
0.04 0.04 0.04 0.06 0.07 0.08 0.14 0.14 0.14 0.10 0.12 0.16 0.20 0.17 0.12 0.09 0.08 0.07 0.06 0.07 0.06 0.06 0.10 0.10 0.07 0.09 0.15 0.19 0.17 0.15 0.12 0.11 0.09 0.07 0.08 0.07 0.08 0.08 0.09 0.11 0.12 0.16 0.21
0.02 0.03 0.03 0.03 0.05 0.11 0.19 0.23 0.21 0.17 0.16 0.19 0.18 0.14 0.10 0.09 0.07 0.05 0.06 0.05 0.05 0.08 0.13 0.17 0.13 0.14 0.15 0.15 0.12 0.12 0.11 0.09 0.08 0.07 0.06 0.06 0.06 0.06 0.07 0.08 0.08 0.09 0.20
0.02 0.02 0.03 0.03 0.04 0.09 0.19 0.30 0.29 0.20 0.14 0.11 0.10 0.10 0.08 0.05 0.06 0.06 0.06 0.05 0.05 0.06 0.11 0.16 0.15 0.14 0.13 0.10 0.08 0.07 0.07 0.08 0.08 0.08 0.07 0.06 0.05 0.05 0.06 0.06 0.04 0.05 0.09
0.03 0.04 0.04 0.03 0.03 0.05 0.12 0.19 0.19 0.13 0.09 0.07 0.07 0.08 0.05 0.03 0.04 0.04 0.06 0.07 0.06 0.07 0.09 0.10 0.10 0.10 0.10 0.07 0.07 0.06 0.06 0.07 0.08 0.08 0.08 0.07 0.07 0.06 0.05 0.05 0.04 0.04 0.05
0.04 0.04 0.05 0.03 0.03 0.03 0.06 0.09 0.10 0.10 0.08 0.07 0.07 0.08 0.05 0.03 0.04 0.05 0.06 0.07 0.08 0.11 0.11 0.07 0.07 0.07 0.06 0.06 0.06 0.06 0.04 0.04 0.04 0.06 0.07 0.08 0.08 0.07 0.06 0.05 0.04 0.04 0.04
0.02 0.03 0.04 0.02 0.03 0.04 0.05 0.06 0.06 0.06 0.05 0.05 0.04 0.03 0.03 0.04 0.04 0.04 0.05 0.05 0.06 0.08 0.09 0.07 0.05 0.05 0.06 0.07 0.06 0.06 0.05 0.05 0.06 0.07 0.08 0.08 0.09 0.08 0.07 0.05 0.04 0.03 0.03
0.01 0.02 0.02 0.02 0.03 0.05 0.06 0.06 0.05 0.04 0.04 0.03 0.03 0.03 0.03 0.03 0.02 0.03 0.04 0.04 0.04 0.05 0.06 0.05 0.05 0.05 0.06 0.08 0.06 0.05 0.04 0.04 0.05 0.06 0.05 0.06 0.07 0.09 0.08 0.06 0.05 0.04 0.03
0.01 0.01 0.02 0.02 0.04 0.05 0.05 0.06 0.05 0.05 0.05 0.05 0.03 0.03 0.03 0.03 0.03 0.02 0.03 0.04 0.03 0.04 0.06 0.05 0.05 0.06 0.05 0.06 0.04 0.06 0.06 0.05 0.04 0.04 0.04 0.04 0.06 0.08 0.10 0.10 0.09 0.07 0.06
0.01 0.01 0.02 0.02 0.02 0.04 0.06 0.06 0.06 0.06 0.07 0.05 0.04 0.05 0.06 0.06 0.04 0.05 0.04 0.05 0.04 0.06 0.05 0.04 0.05 0.05 0.05 0.04 0.06 0.08 0.07 0.05 0.05 0.03 0.03 0.03 0.04 0.06 0.10 0.14 0.13 0.09 0.09
0.01 0.01 0.01 0.02 0.02 0.02 0.04 0.05 0.05 0.05 0.06 0.06 0.06 0.06 0.04 0.04 0.04 0.05 0.06 0.06 0.08 0.07 0.06 0.06 0.06 0.05 0.06 0.06 0.09 0.13 0.11 0.10 0.07 0.03 0.02 0.02 0.04 0.06 0.09 0.10 0.12 0.10 0.11
0.00 0.00 0.00 0.01 0.01 0.02 0.03 0.03 0.03 0.03 0.03 0.04 0.04 0.05 0.04 0.04 0.04 0.04 0.04 0.05 0.07 0.06 0.07 0.07 0.06 0.07 0.08 0.09 0.11 0.12 0.12 0.12 0.09 0.05 0.02 0.03 0.05 0.05 0.04 0.04 0.05 0.07 0.10
0.00 0.00 0.00 0.00 0.01 0.01 0.01 0.02 0.02 0.02 0.02 0.02 0.03 0.03 0.04 0.03 0.03 0.03 0.03 0.04 0.06 0.05 0.06 0.06 0.06 0.08 0.08 0.09 0.10 0.10 0.09 0.10 0.10 0.10 0.08 0.05 0.05 0.07 0.08 0.06 0.08 0.07 0.08
0.00 0.00 0.00 0.00 0.00 0.01 0.01 0.01 0.01 0.02 0.02 0.02 0.02 0.02 0.02 0.03 0.03 0.03 0.04 0.05 0.06 0.06 0.06 0.06 0.07 0.09 0.10 0.11 0.10 0.09 0.08 0.08 0.09 0.08 0.09 0.09 0.08 0.07 0.09 0.07 0.05 0.05 0.06
0.00 0.00 0.00 0.00 0.00 0.01 0.01 0.01 0.01 0.01 0.01 0.02 0.03 0.03 0.02 0.02 0.02 0.02 0.03 0.05 0.07 0.07 0.08 0.08 0.10 0.12 0.13 0.11 0.10 0.09 0.09 0.08 0.10 0.08 0.07 0.07 0.07 0.06 0.04 0.02 0.03 0.04 0.06
MSLP
1004.59 1004.30 1004.34 1004.66 1005.10 1005.52 1005.78 1005.79 1005.57 1005.19 1004.76 1004.40 1004.17 1004.08 1004.05 1004.01 1003.83 1003.48 1002.95 1002.33 1001.72 1001.23 1000.89 1000.67 1000.45 1000.05 999.30 998.08 996.43 994.48 992.50 990.82 989.76 989.55 990.27 991.81 993.94 996.36 998.73 1000.81 1002.44 1003.60 1004.42
1004.52 1004.30 1004.40 1004.76 1005.23 1005.65 1005.88 1005.86 1005.60 1005.20 1004.77 1004.42 1004.21 1004.12 1004.09 1004.00 1003.77 1003.35 1002.77 1002.12 1001.50 1001.00 1000.64 1000.35 999.97 999.29 998.13 996.40 994.15 991.60 989.08 986.97 985.65 985.41 986.29 988.18 990.80 993.77 996.72 999.32 1001.38 1002.88 1003.92
1004.20 1004.05 1004.24 1004.68 1005.21 1005.65 1005.90 1005.88 1005.63 1005.23 1004.82 1004.48 1004.27 1004.17 1004.10 1003.96 1003.67 1003.19 1002.56 1001.88 1001.26 1000.77 1000.39 1000.03 999.49 998.56 997.04 994.87 992.13 989.09 986.13 983.69 982.19 981.93 982.97 985.16 988.17 991.60 995.00 998.02 1000.45 1002.23 1003.47
1003.66 1003.61 1003.90 1004.44 1005.04 1005.55 1005.83 1005.85 1005.63 1005.26 1004.86 1004.54 1004.33 1004.21 1004.09 1003.89 1003.53 1003.00 1002.34 1001.65 1001.03 1000.55 1000.17 999.76 999.12 998.02 996.25 993.78 990.73 987.38 984.16 981.55 979.96 979.73 980.88 983.26 986.51 990.21 993.87 997.15 999.78 1001.73 1003.11
1003.04 1003.09 1003.49 1004.12 1004.81 1005.38 1005.72 1005.78 1005.60 1005.26 1004.89 1004.57 1004.35 1004.20 1004.04 1003.79 1003.38 1002.80 1002.12 1001.43 1000.84 1000.37 1000.01 999.59 998.92 997.76 995.91 993.35 990.21 986.80 983.54 980.92 979.36 979.18 980.38 982.81 986.12 989.84 993.53 996.83 999.48 1001.46 1002.85
1002.50 1002.64 1003.13 1003.84 1004.59 1005.21 1005.59 1005.68 1005.52 1005.21 1004.86 1004.56 1004.33 1004.16 1003.97 1003.68 1003.24 1002.64 1001.95 1001.27 1000.69 1000.26 999.92 999.54 998.92 997.81 996.05 993.62 990.64 987.42 984.36 981.92 980.49 980.37 981.56 983.90 987.04 990.55 994.02 997.09 999.57 1001.41 1002.72
1002.19 1002.39 1002.94 1003.68 1004.45 1005.08 1005.46 1005.56 1005.41 1005.11 1004.78 1004.48 1004.26 1004.09 1003.89 1003.59 1003.14 1002.54 1001.85 1001.18 1000.61 1000.20 999.90 999.58 999.06 998.13 996.61 994.50 991.90 989.09 986.43 984.32 983.12 983.08 984.19 986.30 989.09 992.18 995.20 997.86 999.99 1001.57 1002.71
1002.19 1002.43 1002.98 1003.71 1004.44 1005.03 1005.36 1005.42 1005.25 1004.95 1004.62 1004.35 1004.15 1003.99 1003.82 1003.53 1003.09 1002.51 1001.83 1001.16 1000.59 1000.18 999.90 999.66 999.28 998.58 997.42 995.76 993.70 991.46 989.34 987.68 986.77 986.81 987.79 989.57 991.89 994.41 996.84 998.95 1000.62 1001.87 1002.80
1002.51 1002.75 1003.27 1003.92 1004.56 1005.04 1005.27 1005.26 1005.05 1004.73 1004.41 1004.17 1004.00 1003.89 1003.75 1003.51 1003.11 1002.56 1001.89 1001.21 1000.62 1000.18 999.90 999.70 999.46 999.02 998.25 997.11 995.66 994.07 992.55 991.39 990.79 990.91 991.74 993.15 994.93 996.82 998.62 1000.14 1001.34 1002.24 1002.96
1003.06 1003.28 1003.72 1004.26 1004.75 1005.09 1005.20 1005.09 1004.82 1004.49 1004.18 1003.97 1003.85 1003.80 1003.72 1003.54 1003.19 1002.67 1002.02 1001.33 1000.70 1000.21 999.89 999.71 999.57 999.35 998.95 998.31 997.45 996.48 995.56 994.87 994.57 994.77 995.43 996.48 997.74 999.05 1000.25 1001.25 1002.02 1002.64 1003.18
1003.73 1003.91 1004.25 1004.64 1004.97 1005.15 1005.13 1004.92 1004.60 1004.25 1003.96 1003.79 1003.73 1003.74 1003.73 1003.61 1003.33 1002.85 1002.22 1001.51 1000.84 1000.28 999.91 999.70 999.61 999.55 999.43 999.20 998.84 998.41 998.00 997.72 997.68 997.93 998.46 999.19 1000.02 1000.84 1001.57 1002.15 1002.62 1003.03 1003.47
1004.39 1004.51 1004.74 1004.99 1005.16 1005.19 1005.06 1004.78 1004.42 1004.07 1003.81 1003.68 1003.67 1003.74 1003.79 1003.74 1003.52 1003.09 1002.49 1001.78 1001.07 1000.46 1000.01 999.74 999.65 999.67 999.73 999.78 999.78 999.74 999.71 999.75 999.89 1000.18 1000.60 1001.09 1001.61 1002.09 1002.50 1002.83 1003.12 1003.43 1003.82
1004.91 1004.98 1005.11 1005.24 1005.29 1005.21 1005.00 1004.69 1004.33 1004.00 1003.77 1003.67 1003.70 1003.81 1003.91 1003.91 1003.74 1003.38 1002.82 1002.14 1001.43 1000.78 1000.26 999.93 999.79 999.81 999.94 1000.13 1000.34 1000.54 1000.74 1000.97 1001.23 1001.54 1001.88 1002.23 1002.56 1002.85 1003.10 1003.31 1003.55 1003.85 1004.25
1005.25 1005.27 1005.33 1005.37 1005.34 1005.21 1004.97 1004.66 1004.34 1004.05 1003.86 1003.79 1003.84 1003.96 1004.07 1004.10 1003.99 1003.69 1003.21 1002.59 1001.92 1001.27 1000.73 1000.34 1000.13 1000.10 1000.21 1000.41 1000.68 1000.97 1001.27 1001.58 1001.89 1002.20 1002.49 1002.77 1003.02 1003.25 1003.46 1003.68 1003.95 1004.29 1004.74
1005.38 1005.37 1005.37 1005.36 1005.30 1005.17 1004.97 1004.71 1004.45 1004.22 1004.07 1004.02 1004.06 1004.16 1004.26 1004.30 1004.23 1004.00 1003.61 1003.10 1002.51 1001.92 1001.40 1000.98 1000.71 1000.60 1000.62 1000.76 1000.97 1001.24 1001.53 1001.83 1002.13 1002.42 1002.69 1002.95 1003.19 1003.44 1003.70 1003.99 1004.34 1004.75 1005.22
1005.33 1005.28 1005.26 1005.23 1005.18 1005.09 1004.97 1004.80 1004.63 1004.47 1004.36 1004.31 1004.32 1004.38 1004.44 1004.46 1004.41 1004.26 1003.99 1003.61 1003.16 1002.68 1002.22 1001.82 1001.51 1001.31 1001.23 1001.24 1001.35 1001.51 1001.72 1001.96 1002.21 1002.46 1002.72 1002.98 1003.25 1003.55 1003.88 1004.26 1004.69 1005.15 1005.63
1005.14 1005.07 1005.02 1005.00 1004.99 1004.97 1004.94 1004.89 1004.82 1004.74 1004.67 1004.61 1004.57 1004.56 1004.56 1004.55 1004.52 1004.43 1004.28 1004.05 1003.77 1003.43 1003.08 1002.73 1002.41 1002.15 1001.97 1001.86 1001.84 1001.88 1001.98 1002.13 1002.31 1002.51 1002.75 1003.01 1003.30 1003.64 1004.03 1004.46 1004.93 1005.41 1005.88
1004.88 1004.77 1004.71 1004.69 1004.72 1004.79 1004.86 1004.93 1004.97 1004.97 1004.93 1004.85 1004.76 1004.68 1004.60 1004.55 1004.52 1004.49 1004.45 1004.38 1004.26 1004.09 1003.86 1003.58 1003.29 1003.00 1002.74 1002.54 1002.40 1002.33 1002.33 1002.39 1002.50 1002.66 1002.85 1003.09 1003.38 1003.71 1004.11 1004.54 1005.01 1005.47 1005.90
1004.58 1004.44 1004.35 1004.34 1004.41 1004.54 1004.71 1004.88 1005.02 1005.09 1005.09 1005.01 1004.87 1004.71 1004.57 1004.47 1004.43 1004.44 1004.50 1004.56 1004.58 1004.56 1004.45 1004.27 1004.02 1003.73 1003.44 1003.17 1002.95 1002.81 1002.74 1002.73 1002.79 1002.89 1003.04 1003.22 1003.45 1003.73 1004.07 1004.45 1004.87 1005.28 1005.67
1004.29 1004.12 1004.01 1003.99 1004.08 1004.26 1004.50 1004.76 1004.98 1005.12 1005.15 1005.07 1004.90 1004.69 1004.49 1004.35 1004.29 1004.32 1004.44 1004.59 1004.73 1004.82 1004.82 1004.71 1004.52 1004.25 1003.95 1003.66 1003.42 1003.25 1003.14 1003.11 1003.12 1003.17 1003.25 1003.35 1003.48 1003.66 1003.89 1004.17 1004.50 1004.85 1005.20
1004.05 1003.87 1003.73 1003.70 1003.79 1003.99 1004.28 1004.60 1004.88 1005.08 1005.15 1005.08 1004.90 1004.66 1004.42 1004.24 1004.15 1004.19 1004.33 1004.53 1004.73 1004.89 1004.96 1004.92 1004.76 1004.53 1004.26 1003.99 1003.76 1003.60 1003.50 1003.46 1003.45 1003.45 1003.45 1003.45 1003.46 1003.49 1003.58 1003.73 1003.96 1004.25 1004.58
1003.90 1003.72 1003.58 1003.53 1003.61 1003.81 1004.12 1004.47 1004.80 1005.04 1005.15 1005.10 1004.93 1004.68 1004.41 1004.20 1004.09 1004.10 1004.24 1004.44 1004.66 1004.85 1004.94 1004.93 1004.81 1004.61 1004.38 1004.15 1003.97 1003.84 1003.78 1003.75 1003.73 1003.70 1003.62 1003.50 1003.37 1003.26 1003.19 1003.22 1003.34 1003.57 1003.89
1003.87 1003.74 1003.62 1003.57 1003.63 1003.82 1004.11 1004.47 1004.81 1005.08 1005.22 1005.20 1005.04 1004.79 1004.52 1004.29 1004.15 1004.13 1004.23 1004.41 1004.60 1004.77 1004.86 1004.85 1004.75 1004.58 1004.38 1004.20 1004.07 1004.00 1003.98 1003.98 1003.96 1003.89 1003.74 1003.52 1003.26 1003.01 1002.80 1002.70 1002.74 1002.92 1003.24
1004.02 1003.97 1003.90 1003.86 1003.91 1004.07 1004.33 1004.66 1004.99 1005.26 1005.41 1005.41 1005.28 1005.05 1004.77 1004.53 1004.37 1004.31 1004.36 1004.48 1004.63 1004.75 1004.81 1004.78 1004.68 1004.52 1004.35 1004.22 1004.13 1004.11 1004.12 1004.14 1004.12 1004.02 1003.81 1003.51 1003.15 1002.78 1002.47 1002.28 1002.24 1002.38 1002.69
1004.38 1004.45 1004.44 1004.42 1004.46 1004.58 1004.80 1005.08 1005.37 1005.61 1005.75 1005.76 1005.64 1005.42 1005.16 1004.91 1004.72 1004.63 1004.62 1004.69 1004.77 1004.84 1004.85 1004.79 1004.67 1004.51 1004.36 1004.24 1004.18 1004.18 1004.21 1004.23 1004.20 1004.06 1003.82 1003.46 1003.04 1002.60 1002.22 1001.97 1001.88 1001.98 1002.26
1004.97 1005.16 1005.23 1005.24 1005.26 1005.34 1005.48 1005.69 1005.92 1006.12 1006.23 1006.23 1006.11 1005.90 1005.65 1005.40 1005.20 1005.07 1005.03 1005.04 1005.07 1005.08 1005.04 1004.94 1004.78 1004.60 1004.43 1004.30 1004.23 1004.21 1004.22 1004.22 1004.16 1004.01 1003.73 1003.36 1002.91 1002.45 1002.04 1001.76 1001.64 1001.70 1001.93
Thickness
5816 5815 5812 5810 5809 5808 5807 5806 5805 5803 5801 5800 5798 5797 5795 5794 5792 5791 5790 5790 5789 5788 5788 5787 5786 5785 5785 5784 5783 5782 5781 5780 5779 5778 5777 5776 5775 5774 5773 5773 5772 5771 5770
5820 5816 5812 5810 5809 5808 5807 5806 5805 5803 5801 5799 5798 5796 5795 5793 5791 5790 5789 5788 5788 5787 5787 5786 5785 5784 5784 5783 5782 5781 5780 5779 5778 5778 5777 5775 5774 5773 5773 5772 5771 5771 5770
5821 5817 5813 5811 5809 5808 5807 5806 5804 5803 5801 5799 5797 5795 5794 5792 5790 5789 5788 5787 5786 5786 5785 5785 5784 5784 5783 5781 5780 5780 5779 5779 5779 5778 5776 5775 5774 5773 5772 5771 5770 5769 5768
5824 5819 5814 5811 5809 5808 5806 5805 5803 5802 5800 5798 5796 5794 5793 5791 5790 5788 5787 5786 5786 5785 5784 5784 5783 5783 5782 5780 5779 5779 5778 5779 5779 5777 5776 5775 5774 5773 5770 5769 5769 5768 5767
5824 5819 5813 5810 5809 5807 5805 5804 5802 5801 5798 5796 5795 5793 5792 5790 5789 5787 5786 5786 5785 5784 5784 5783 5783 5782 5781 5779 5779 5779 5778 5778 5778 5777 5776 5775 5773 5771 5769 5768 5767 5767 5766
5823 5819 5813 5810 5809 5807 5805 5803 5801 5799 5797 5795 5794 5792 5791 5790 5789 5787 5786 5785 5785 5784 5784 5783 5783 5782 5780 5779 5779 5778 5777 5778 5777 5777 5776 5774 5772 5771 5769 5767 5766 5765 5764
5821 5818 5813 5811 5808 5806 5804 5802 5800 5798 5796 5794 5793 5793 5792 5791 5789 5787 5786 5785 5784 5784 5783 5783 5783 5782 5781 5780 5779 5778 5777 5777 5776 5776 5776 5774 5772 5771 5769 5767 5766 5764 5763
5822 5818 5813 5810 5808 5806 5804 5802 5800 5798 5796 5794 5793 5793 5792 5791 5789 5787 5785 5784 5784 5783 5784 5784 5784 5782 5781 5780 5779 5778 5776 5776 5777 5777 5775 5773 5772 5770 5769 5767 5765 5764 5762
5822 5818 5814 5811 5807 5806 5804 5802 5800 5798 5796 5794 5792 5792 5791 5790 5788 5786 5785 5784 5784 5783 5784 5784 5784 5782 5781 5780 5779 5778 5777 5776 5776 5776 5775 5772 5771 5769 5768 5766 5765 5763 5762
5820 5817 5814 5812 5809 5807 5804 5802 5800 5798 5796 5794 5792 5791 5790 5789 5787 5786 5785 5784 5784 5783 5783 5783 5783 5782 5781 5779 5778 5777 5776 5775 5775 5775 5773 5771 5770 5768 5766 5765 5764 5762 5761
5817 5816 5814 5811 5809 5809 5806 5803 5800 5798 5796 5794 5792 5791 5790 5789 5789 5787 5786 5785 5784 5784 5783 5782 5782 5781 5780 5779 5778 5777 5775 5775 5776 5774 5772 5771 5769 5768 5766 5764 5763 5761 5760
5811 5813 5812 5810 5808 5808 5807 5804 5802 5800 5797 5795 5793 5791 5790 5789 5789 5788 5786 5785 5785 5784 5783 5782 5781 5780 5779 5778 5778 5777 5776 5775 5776 5773 5771 5770 5768 5767 5765 5763 5762 5761 5759
5812 5812 5811 5809 5807 5807 5806 5805 5802 5801 5798 5795 5793 5792 5790 5789 5788 5787 5786 5785 5784 5784 5782 5781 5780 5780 5780 5779 5778 5776 5775 5775 5775 5772 5770 5769 5767 5765 5763 5762 5761 5760 5758
5812 5811 5811 5810 5808 5806 5806 5804 5802 5800 5797 5795 5793 5791 5790 5788 5787 5786 5786 5785 5784 5784 5782 5780 5779 5779 5779 5779 5778 5776 5775 5775 5773 5771 5768 5767 5766 5764 5762 5761 5760 5759 5757
5812 5811 5811 5809 5807 5805 5803 5802 5801 5799 5797 5795 5794 5791 5790 5788 5786 5786 5785 5784 5783 5783 5782 5781 5779 5778 5777 5777 5777 5777 5776 5774 5773 5771 5768 5766 5764 5763 5762 5760 5759 5757 5756
5814 5811 5811 5809 5807 5805 5802 5800 5799 5799 5797 5795 5793 5791 5789 5788 5786 5785 5784 5783 5783 5782 5781 5780 5779 5778 5777 5777 5777 5777 5776 5775 5773 5771 5769 5767 5765 5763 5761 5759 5758 5757 5756
5815 5813 5811 5810 5808 5805 5803 5801 5800 5799 5797 5795 5793 5791 5789 5788 5786 5784 5783 5782 5781 5780 5778 5780 5779 5778 5778 5777 5776 5776 5775 5775 5774 5772 5771 5768 5766 5763 5761 5759 5757 5756 5755
5817 5813 5812 5812 5808 5805 5803 5801 5801 5799 5797 5795 5793 5791 5789 5788 5786 5784 5783 5782 5782 5781 5780 5779 5778 5776 5775 5775 5774 5773 5775 5774 5773 5772 5771 5769 5767 5764 5760 5758 5756 5755 5753
5817 5813 5811 5809 5807 5805 5804 5802 5801 5799 5797 5795 5793 5790 5788 5787 5786 5784 5783 5782 5782 5781 5780 5779 5777 5775 5772 5771 5771 5773 5773 5773 5772 5772 5771 5769 5767 5764 5761 5757 5755 5754 5752
5818 5814 5811 5809 5806 5805 5803 5801 5800 5798 5796 5795 5792 5790 5788 5787 5785 5783 5783 5781 5781 5779 5777 5776 5774 5774 5772 5770 5771 5771 5771 5772 5772 5771 5770 5769 5766 5764 5762 5758 5754 5752 5751
5817 5813 5810 5807 5806 5804 5801 5798 5795 5794 5794 5792 5791 5789 5788 5786 5785 5783 5781 5780 5779 5777 5775 5774 5772 5771 5770 5770 5766 5763 5766 5770 5769 5768 5768 5767 5765 5764 5761 5758 5754 5753 5750
5816 5813 5810 5808 5806 5804 5802 5800 5797 5795 5794 5793 5792 5789 5788 5786 5784 5783 5779 5778 5777 5775 5773 5772 5771 5768 5768 5769 5763 5757 5753 5756 5761 5767 5765 5763 5762 5762 5759 5757 5754 5752 5750
5817 5814 5812 5808 5807 5805 5804 5802 5799 5796 5793 5791 5789 5787 5787 5786 5784 5782 5779 5777 5775 5774 5771 5770 5769 5766 5763 5765 5765 5757 5748 5743 5750 5757 5760 5760 5759 5758 5756 5755 5752 5751 5748
5819 5817 5813 5809 5806 5805 5803 5800 5795 5791 5787 5788 5788 5787 5787 5786 5783 5781 5779 5776 5774 5772 5770 5768 5768 5766 5763 5759 5761 5761 5757 5752 5746 5744 5750 5755 5757 5755 5754 5752 5749 5748 5746
5821 5818 5813 5809 5805 5803 5801 5798 5794 5791 5790 5789 5788 5786 5784 5784 5782 5780 5778 5775 5773 5771 5769 5767 5765 5763 5762 5758 5756 5755 5754 5753 5751 5744 5740 5745 5749 5750 5750 5748 5746 5746 5744
5821 5818 5813 5807 5803 5802 5800 5797 5794 5790 5788 5786 5784 5782 5782 5781 5780 5778 5776 5773 5771 5769 5766 5764 5762 5760 5758 5756 5754 5752 5749 5746 5744 5743 5739 5739 5739 5743 5746 5746 5744 5743 5741